Regional Weather Roundup
Issued by NWS

Home | Current Version | Previous Version | Text Only | Print | Product List | Glossary On
Versions: 1 2 3 4 5 6 7 8 9 10 11 12 13 14 15 16 17 18 19 20 21 22 23 24 25 26 27 28 29 30 31 32 33 34 35 36 37 38 39 40 41 42 43 44 45 46 47 48 49 50
000
ASUS43 KDMX 211207
RWRIA

WEATHER ROUNDUP FOR IOWA
NATIONAL WEATHER SERVICE DES MOINES IA
700 AM CDT TUE APR 21 2015

NOTE: "FAIR" INDICATES FEW OR NO CLOUDS BELOW 12,000 FEET WITH NO
SIGNIFICANT WEATHER AND/OR OBSTRUCTIONS TO VISIBILITY.

* - THESE STATIONS ARE NOT NWS STATIONS...THUS NOT UNDER NWS
QUALITY CONTROL.  THEY ALSO DO NOT REPORT WEATHER SUCH
AS PRECIPITATION OR FOG.

IAZ001>003-012>014-020>022-031>034-043>046-211300-
   NORTHWEST IOWA

CITY           SKY/WX    TMP DP  RH WIND       PRES   REMARKS
CARROLL *      CLEAR     34  21  60 W13       29.74S WCI  25
CHEROKEE *     CLEAR     32  19  60 W12       29.74S WCI  23
DENISON *      CLEAR     34  19  55 W7        29.75S WCI  28
LE MARS *      CLEAR     34  16  47 W9        29.77R WCI  26
ORANGE CITY *  CLEAR     27  19  74 W8        29.74R WCI  18
SHELDON *      CLEAR     30  23  74 W13       29.72R WCI  20
SIOUX CITY     CLEAR     33  18  53 NW5       29.78R WCI  29
6HR MIN TEMP:  32; 6HR MAX TEMP:  40;

SPENCER        CLEAR     32  25  75 W15       29.71R WCI  22
6HR MIN TEMP:  31; 6HR MAX TEMP:  37;

STORM LAKE *   CLEAR     30  19  64 W13       29.74R WCI  20
$$

IAZ055>058-069>071-079>083-090>094-211300-
   SOUTHWEST IOWA

CITY           SKY/WX    TMP DP  RH WIND       PRES   REMARKS
ATLANTIC *     CLEAR     36  23  60 W8        29.79R WCI  29
AUDUBON *      CLEAR     36  21  55 W5        29.77S WCI  32
CLARINDA *     CLEAR     36  27  69 W8        29.84R WCI  29
COUNCIL BLFS * CLEAR     39  25  56 W10       29.81R WCI  32
CRESTON *      CLEAR     34  25  69 W9        29.79R WCI  26
HARLAN  *      CLEAR     34  25  69 W13       29.81S WCI  25
LAMONI         CLEAR     39  25  57 W10       29.79R WCI  32
6HR MIN TEMP:  38; 6HR MAX TEMP:  43;

RED OAK *      CLEAR     37  27  65 W8        29.81S WCI  31
SHENANDOAH *   CLEAR     36  30  80 SW6       29.84R WCI  31
$$

IAZ047>049-059>061-072>074-084-211300-
   CENTRAL IOWA

CITY           SKY/WX    TMP DP  RH WIND       PRES   REMARKS
AMES           CLEAR     34  27  75 W13       29.72S WCI  25
6HR MIN TEMP:  33; 6HR MAX TEMP:  37;

ANKENY *       CLEAR     36  25  64 W8        29.74F WCI  29
CHARITON *     CLEAR     36  23  60 W8        29.77S WCI  29
DES MOINES     CLEAR     36  21  54 W3        29.76R
6HR MIN TEMP:  36; 6HR MAX TEMP:  39;

GRINNELL*      CLEAR     36  28  75 SW12      29.72S WCI  27
KNOXVILLE *    CLEAR     36  23  60 W8        29.75S WCI  29
MARSHALLTOWN   CLEAR     37  27  67 W13       29.70R WCI  29
6HR MIN TEMP:  35; 6HR MAX TEMP:  39;

PELLA *        CLEAR     38  29  70 W9        29.76S WCI  31
PERRY *          N/A     34  27  75 W10       29.74S WCI  26
$$

IAZ004>006-015-016-023>025-035-036-211300-
   NORTH CENTRAL IOWA

CITY           SKY/WX    TMP DP  RH WIND       PRES   REMARKS
ALGONA *       CLEAR     34  28  80 W15       29.68S WCI  24
CLARION *      CLEAR     34  30  86 W12       29.68S WCI  25
ESTHERVILLE    CLEAR     34  25  69 W22       29.68R WCI  22
6HR MIN TEMP:  33; 6HR MAX TEMP:  36;

FORT DODGE *   CLEAR     34  25  69 W9        29.71S WCI  26
MASON CITY     CLEAR     34  27  75 W18       29.65S WCI  23
6HR MIN TEMP:  34; 6HR MAX TEMP:  37;

FOREST CITY *  CLEAR     32  28  86 W9        29.65R WCI  24
IOWA FALLS *     N/A     36  28  75 W14       29.69S WCI  27
$$

IAZ007>011-017>019-026>030-037>042-050>054-066-211300-
   NORTHEAST IOWA

CITY           SKY/WX    TMP DP  RH WIND       PRES   REMARKS
CEDAR RAPIDS   CLEAR     35  30  82 W13       29.68R WCI  26
6HR MIN TEMP:  35; 6HR MAX TEMP:  38;

CHARLES CITY * PTCLDY    36  28  75 W17       29.63S WCI  25
CLINTON *      CLEAR     37  28  70 W14       29.69R WCI  29
DECORAH *      CLOUDY    36  28  75 W16G22    29.57S WCI  26
DUBUQUE        CLOUDY    38  28  67 W17G30    29.62R WCI  28
6HR MIN TEMP:  37; 6HR MAX TEMP:  38;

MONTICELLO *   CLEAR     37  30  75 W15G23    29.65R WCI  28
OELWEIN *      CLEAR     36  28  75 W22       29.65R WCI  24
WATERLOO       CLEAR     37  27  67 W13G23    29.66S WCI  29
6HR MIN TEMP:  35; 6HR MAX TEMP:  39;

$$

IAZ064-065-067-068-078-211300-
   EAST CENTRAL IOWA

CITY           SKY/WX    TMP DP  RH WIND       PRES   REMARKS
DAVENPORT      CLEAR     36  29  75 W13       29.69R WCI  27
6HR MIN TEMP:  36; 6HR MAX TEMP:  38;

IOWA CITY      CLEAR     38  29  70 W10       29.72R WCI  31
6HR MIN TEMP:  35; 6HR MAX TEMP:  39;

MT. PLEASANT * CLEAR     37  24  61 W8        29.75S WCI  30
MUSCATINE *    CLEAR     39  28  65 W15       29.72R WCI  31
QUAD CITIES    CLEAR     40  28  62 SW12      29.69R WCI  33
6HR MIN TEMP:  38; 6HR MAX TEMP:  42;

$$

IAZ062-063-075>077-085>089-095>099-211300-
   SOUTHEAST IOWA

CITY           SKY/WX    TMP DP  RH WIND       PRES   REMARKS
BURLINGTON     CLEAR     38  26  62 W9        29.75R WCI  31
6HR MIN TEMP:  36; 6HR MAX TEMP:  43;

FAIRFIELD *    CLEAR     36  25  64 W8        29.75S WCI  29
FORT MADISON * CLEAR     39  27  60 W10       29.77R WCI  32
KEOKUK *       CLEAR     39  27  60 W10       29.77R WCI  32
OSKALOOSA *      N/A     32  27  79 W8        29.76R WCI  25
CENTERVILLE *  CLEAR     36  27  69 W8        29.80R WCI  29
OTTUMWA        CLEAR     35  24  64 W8        29.75R WCI  29
6HR MIN TEMP:  33; 6HR MAX TEMP:  39;

WASHINGTON *   CLEAR     37  30  75 W10       29.74R WCI  30
$$

ABBREVIATIONS USED IN REMARKS
   TC - TEMPERATURES IN CELSIUS
  WCI - WIND CHILL INDEX
   HX - HEAT INDEX
  VSB - VISIBILITY
$$




USA.gov is the U.S. government's official web portal to all federal, state and local government web resources and services.